| time (UTC) | temp F | wind direction | speed MPH | gust MPH | rain 1hr in | rain 24hr in | rain mn in | humidity % | barometer mb |
| 20260505021544 | 68 | 212 | 3.0 | 6.0 | 0.00 | 0.00 | 0.00 | 44 | 1016.1 |
| 20260505020041 | 68 | 219 | 1.0 | 7.0 | 0.00 | 0.00 | 0.00 | 42 | 1016.2 |
| 20260505014618 | 69 | 165 | 4.0 | 9.0 | 0.00 | 0.00 | 0.00 | 41 | 1015.9 |
| 20260505013046 | 69 | 163 | 3.0 | 8.0 | 0.00 | 0.00 | 0.00 | 41 | 1016.0 |
| 20260505011544 | 69 | 182 | 4.0 | 10.0 | 0.00 | 0.00 | 0.00 | 40 | 1015.9 |
| 20260505010053 | 69 | 207 | 2.0 | 8.0 | 0.00 | 0.00 | 0.00 | 39 | 1015.7 |
| 20260505004541 | 70 | 203 | 3.0 | 8.0 | 0.00 | 0.00 | 0.00 | 38 | 1015.5 |
| 20260505003041 | 70 | 130 | 2.0 | 6.0 | 0.00 | 0.00 | 0.00 | 38 | 1015.3 |
| 20260505001544 | 71 | 156 | 2.0 | 6.0 | 0.00 | 0.00 | 0.00 | 37 | 1015.2 |
| 20260505000046 | 71 | 190 | 2.0 | 8.0 | 0.00 | 0.00 | 0.00 | 36 | 1015.3 |
| 20260504234545 | 72 | 186 | 2.0 | 7.0 | 0.00 | 0.00 | 0.00 | 37 | 1015.1 |
| 20260504233100 | 73 | 196 | 4.0 | 12.0 | 0.00 | 0.00 | 0.00 | 36 | 1015.1 |
| 20260504231546 | 73 | 188 | 6.0 | 14.0 | 0.00 | 0.00 | 0.00 | 35 | 1014.9 |
| 20260504230052 | 74 | 169 | 6.0 | 12.0 | 0.00 | 0.00 | 0.00 | 36 | 1014.9 |
| 20260504224541 | 74 | 182 | 3.0 | 9.0 | 0.00 | 0.00 | 0.00 | 37 | 1014.9 |
| 20260504223040 | 74 | 159 | 5.0 | 15.0 | 0.00 | 0.00 | 0.00 | 37 | 1014.9 |
| 20260504221544 | 74 | 179 | 7.0 | 14.0 | 0.00 | 0.00 | 0.00 | 37 | 1014.9 |
| 20260504220044 | 74 | 190 | 6.0 | 12.0 | 0.00 | 0.00 | 0.00 | 36 | 1014.8 |
| 20260504214554 | 75 | 165 | 6.0 | 13.0 | 0.00 | 0.00 | 0.00 | 36 | 1014.8 |
| 20260504213041 | 75 | 152 | 7.0 | 14.0 | 0.00 | 0.00 | 0.00 | 35 | 1014.8 |
| 20260504211541 | 75 | 182 | 5.0 | 13.0 | 0.00 | 0.00 | 0.00 | 36 | 1014.9 |
| 20260504210104 | 76 | 100 | 5.0 | 13.0 | 0.00 | 0.00 | 0.00 | 34 | 1014.7 |
| 20260504204548 | 76 | 175 | 3.0 | 10.0 | 0.00 | 0.00 | 0.00 | 36 | 1015.0 |
| 20260504203100 | 76 | 175 | 5.0 | 16.0 | 0.00 | 0.00 | 0.00 | 35 | 1015.0 |
| 20260504201542 | 76 | 232 | 4.0 | 11.0 | 0.00 | 0.00 | 0.00 | 35 | 1015.4 |
| 20260504200042 | 76 | 142 | 8.0 | 13.0 | 0.00 | 0.00 | 0.00 | 34 | 1015.4 |
| 20260504194541 | 78 | 76 | 1.0 | 10.0 | 0.00 | 0.00 | 0.00 | 34 | 1015.6 |
| 20260504193041 | 77 | 159 | 3.0 | 8.0 | 0.00 | 0.00 | 0.00 | 35 | 1015.6 |
| 20260504191545 | 77 | 131 | 6.0 | 12.0 | 0.00 | 0.00 | 0.00 | 35 | 1015.9 |
| 20260504190106 | 77 | 212 | 3.0 | 10.0 | 0.00 | 0.00 | 0.00 | 35 | 1016.0 |
| 20260504184543 | 76 | 213 | 4.0 | 9.0 | 0.00 | 0.00 | 0.00 | 35 | 1016.3 |
| 20260504183041 | 75 | 277 | 6.0 | 11.0 | 0.00 | 0.00 | 0.00 | 36 | 1016.5 |
| 20260504181543 | 75 | 241 | 5.0 | 9.0 | 0.00 | 0.00 | 0.00 | 35 | 1016.8 |
| 20260504180041 | 75 | 134 | 4.0 | 10.0 | 0.00 | 0.00 | 0.00 | 35 | 1017.0 |
| 20260504174545 | 74 | 235 | 3.0 | 10.0 | 0.00 | 0.00 | 0.00 | 35 | 1017.1 |
| 20260504173043 | 73 | 252 | 4.0 | 10.0 | 0.00 | 0.00 | 0.00 | 37 | 1017.0 |
| 20260504171546 | 74 | 267 | 6.0 | 12.0 | 0.00 | 0.00 | 0.00 | 36 | 1017.2 |
| 20260504081548 | 43 | 243 | 2.0 | 3.0 | 0.00 | 0.00 | 0.00 | 83 | 1018.0 |
| 20260504044541 | 52 | 219 | 0.0 | 3.0 | 0.00 | 0.00 | 0.00 | 66 | 1018.4 |
| 20260504043052 | 53 | 221 | 1.0 | 3.0 | 0.00 | 0.00 | 0.00 | 65 | 1018.4 |
| 20260504041541 | 53 | 223 | 1.0 | 2.0 | 0.00 | 0.00 | 0.00 | 63 | 1018.0 |
| 20260504040046 | 53 | 227 | 1.0 | 3.0 | 0.00 | 0.00 | 0.00 | 64 | 1018.0 |
| 20260504034543 | 53 | 226 | 1.0 | 3.0 | 0.00 | 0.00 | 0.00 | 64 | 1017.9 |
| 20260504033042 | 53 | 0 | 0.0 | 0.0 | 0.00 | 0.00 | 0.00 | 63 | 1018.2 |
| 20260504031541 | 54 | 0 | 0.0 | 0.0 | 0.00 | 0.00 | 0.00 | 63 | 1018.2 |
| 20260504030048 | 54 | 0 | 0.0 | 2.0 | 0.00 | 0.00 | 0.00 | 62 | 1018.2 |
| 20260504024543 | 55 | 249 | 0.0 | 2.0 | 0.00 | 0.00 | 0.00 | 60 | 1018.4 |
| 20260504023044 | 56 | 249 | 1.0 | 3.0 | 0.00 | 0.00 | 0.00 | 58 | 1018.2 |